This is the latest recevied weather packets stored in our database for station/object KK7KRZ. If no packets are shown the sender has not sent any weather packets the latest 10 day(s).
| Time | Temp. | Humidity | Pressure | Rain* | Wind** | Luminosity | Snow |
|---|---|---|---|---|---|---|---|
| 1777737627 | 11.67° C | 82% | 1016 hPa | 0 mm | - | 106 W/m² | - |
| 1777737325 | 11.67° C | 82% | 1016 hPa | 0 mm | - | 101 W/m² | - |
| 1777737021 | 11.67° C | 83% | 1016.3 hPa | 0 mm | - | 115 W/m² | - |
| 1777736717 | 11.67° C | 83% | 1016 hPa | 0 mm | - | 109 W/m² | - |
| 1777736078 | 11.11° C | 85% | 1016 hPa | 0 mm | - | 101 W/m² | - |
| 1777735775 | 11.11° C | 85% | 1015.9 hPa | 0 mm | - | 79 W/m² | - |
| 1777735472 | 10.56° C | 86% | 1016.1 hPa | 0 mm | - | 55 W/m² | - |
| 1777735170 | 10.56° C | 86% | 1015.9 hPa | 0 mm | - | 50 W/m² | - |
| 1777734866 | 10.56° C | 87% | 1016 hPa | 0 mm | - | 55 W/m² | - |
| 1777734564 | 10.56° C | 87% | 1015.9 hPa | 0 mm | - | 53 W/m² | - |
| 1777734261 | 10.56° C | 86% | 1015.8 hPa | 0 mm | - | 38 W/m² | - |
| 1777733957 | 10.56° C | 87% | 1016.1 hPa | 0 mm | - | 30 W/m² | - |
| 1777733654 | 10.56° C | 87% | 1016 hPa | 0 mm | - | 23 W/m² | - |
| 1777733350 | 10.56° C | 86% | 1015.9 hPa | 0 mm | - | 23 W/m² | - |
| 1777733047 | 10.56° C | 86% | 1016.1 hPa | 0 mm | - | 26 W/m² | - |
| 1777732743 | 10.56° C | 86% | 1016.2 hPa | 0 mm | - | 20 W/m² | - |
| 1777732440 | 10.56° C | 85% | 1016.1 hPa | 0 mm | - | 16 W/m² | - |
| 1777732138 | 10.56° C | 86% | 1016.2 hPa | 0 mm | - | 13 W/m² | - |
| 1777731834 | 10.56° C | 86% | 1015.9 hPa | 0 mm | - | 13 W/m² | - |
| 1777731531 | 10.56° C | 86% | 1015.8 hPa | 0 mm | - | 16 W/m² | - |
| 1777731230 | 10.56° C | 86% | 1015.8 hPa | 0 mm | - | 17 W/m² | - |
| 1777730927 | 10° C | 86% | 1015.7 hPa | 0 mm | - | 20 W/m² | - |
| 1777730624 | 10° C | 86% | 1015.8 hPa | 0 mm | - | 16 W/m² | - |
| 1777730321 | 10° C | 86% | 1015.8 hPa | 0 mm | - | 12 W/m² | - |
| 1777730017 | 10° C | 86% | 1015.9 hPa | 0 mm | - | 9 W/m² | - |
* Rain latest hour (hover to see other rain measurements)
** Current wind speed in m/s (hover to see current wind gust speed)